Date String (YYYY-MM-DD hh:mm:ss) UTC,Instrument flags,Ambient pressure (hPa),Sample flow (lpm),Bypass flow (lpm),Sample temperature (°C),Ambient temperature (°C),ASC tube jacket temperature (°C),LED temperature (°C),Box temperature (°C),Sample RH (%),Span deviation,Mass concentration (μg/m³),Mass concentration (μg/m³),Mass concentration (μg/m³)
DateTimeUTC,F1_M11,P_M11,Q1_M11,Q2_M11,T1_M11,T2_M11,T3_M11,T4_M11,T5_M11,U1_M11,ZSPAN_M11,X0_M11,X2_M11,X1_M11
2022-08-15 14:00:00,,0829.0,5.00,0.00,30.7,28.2,00.0,39.4,31.9,35.1,0000.0,0009.49,0003.96,0003.27
2022-08-15 14:01:00,,0829.1,5.00,0.00,31.0,28.4,00.0,39.3,32.1,34.3,0000.0,0008.67,0003.90,0003.24
2022-08-15 14:02:00,,0829.1,5.02,0.00,31.1,28.5,00.0,39.3,32.1,34.0,0000.0,0008.14,0003.85,0003.22
2022-08-15 14:03:00,,0829.1,4.99,0.00,31.2,28.6,00.0,39.4,32.1,34.0,0000.0,0008.88,0003.82,0003.21
2022-08-15 14:04:00,,0829.1,4.99,0.00,31.2,28.7,00.0,39.4,32.1,34.0,0000.0,0010.17,0003.82,0003.19
2022-08-15 14:05:00,,0829.1,4.99,0.00,31.2,28.7,00.0,39.4,32.1,34.3,0000.0,0010.22,0003.79,0003.17
2022-08-15 14:06:00,,0829.1,5.00,0.00,31.2,28.8,00.0,39.4,32.1,34.4,0000.0,0009.93,0003.80,0003.16
2022-08-15 14:07:00,,0829.1,5.01,0.00,31.2,28.9,00.0,39.5,32.1,34.5,0000.0,0009.87,0003.81,0003.16
2022-08-15 14:08:00,,0829.0,5.00,0.00,31.2,28.9,00.0,39.5,32.1,34.3,0000.0,0009.77,0003.81,0003.16
2022-08-15 14:09:00,,0829.1,5.00,0.00,31.2,29.0,00.0,39.5,32.2,33.8,0000.0,0010.18,0003.83,0003.16
2022-08-15 14:10:00,,0829.1,5.00,0.00,31.2,29.0,00.0,39.6,32.2,34.0,0000.0,0010.61,0003.86,0003.16
2022-08-15 14:11:00,,0829.1,5.00,0.00,31.1,29.1,00.0,39.6,32.2,34.3,0000.0,0010.48,0003.85,0003.18
2022-08-15 14:12:00,,0829.1,5.00,0.00,31.1,28.9,00.0,39.6,32.1,34.2,0000.0,0010.76,0003.88,0003.20
2022-08-15 14:13:00,,0829.1,5.02,0.00,31.1,28.2,00.0,39.5,32.0,35.1,0000.0,0010.77,0003.93,0003.22
2022-08-15 14:14:00,,0829.2,4.99,0.00,31.1,27.6,00.0,39.5,31.9,34.8,0000.0,0010.00,0003.95,0003.24
2022-08-15 14:15:00,,0829.2,5.00,0.00,31.2,27.5,00.0,39.4,31.9,34.0,0000.0,0008.55,0003.93,0003.26
2022-08-15 14:16:00,,0829.2,5.01,0.00,31.1,27.6,00.0,39.4,31.8,33.6,0000.0,0008.35,0003.93,0003.27
2022-08-15 14:17:00,,0829.3,4.99,0.00,31.1,27.7,00.0,39.4,31.9,33.7,0000.0,0008.21,0003.90,0003.28
2022-08-15 14:18:00,,0829.3,5.01,0.00,31.1,27.9,00.0,39.4,31.9,34.0,0000.0,0008.16,0003.87,0003.28
2022-08-15 14:19:00,,0829.3,4.99,0.00,31.0,28.0,00.0,39.4,31.9,34.0,0000.0,0008.07,0003.83,0003.28
2022-08-15 14:20:00,,0829.2,5.01,0.00,31.0,28.2,00.0,39.4,31.9,34.3,0000.0,0007.71,0003.78,0003.27
2022-08-15 14:21:00,,0829.2,4.99,0.00,31.0,28.3,00.0,39.4,31.9,34.1,0000.0,0007.44,0003.71,0003.26
2022-08-15 14:22:00,,0829.2,4.99,0.00,30.9,28.4,00.0,39.4,32.0,33.7,0000.0,0007.26,0003.66,0003.23
2022-08-15 14:23:00,,0829.2,5.00,0.00,30.9,28.5,00.0,39.4,32.0,33.7,0000.0,0006.53,0003.65,0003.22
2022-08-15 14:24:00,,0829.3,5.00,0.00,30.9,28.6,00.0,39.4,32.0,34.2,0000.0,0006.49,0003.63,0003.21
2022-08-15 14:25:00,,0829.2,5.00,0.00,30.9,28.7,00.0,39.4,32.0,33.9,0000.0,0006.63,0003.62,0003.20
2022-08-15 14:26:00,,0829.3,5.00,0.00,30.9,28.8,00.0,39.4,32.0,34.0,0000.0,0006.51,0003.60,0003.20
2022-08-15 14:27:00,,0829.3,4.99,0.00,30.9,28.9,00.0,39.4,32.1,33.2,0000.0,0006.76,0003.61,0003.19
2022-08-15 14:28:00,,0829.3,5.00,0.00,30.8,29.0,00.0,39.4,32.1,33.9,0000.0,0007.43,0003.63,0003.19
2022-08-15 14:29:00,,0829.3,5.01,0.00,30.8,29.0,00.0,39.4,32.1,33.8,0000.0,0007.92,0003.64,0003.19
2022-08-15 14:30:00,,0829.3,5.00,0.00,30.8,28.9,00.0,39.4,32.1,33.7,0000.0,0008.03,0003.64,0003.19
2022-08-15 14:31:00,,0829.2,5.01,0.00,30.8,28.2,00.0,39.3,31.9,33.5,0000.0,0007.93,0003.63,0003.19
2022-08-15 14:32:00,,0829.3,4.99,0.00,30.7,27.7,00.0,39.3,31.7,34.1,0000.0,0007.84,0003.63,0003.20
2022-08-15 14:33:00,,0829.2,5.01,0.00,30.6,27.5,00.0,39.3,31.7,34.6,0000.0,0007.99,0003.65,0003.21
2022-08-15 14:34:00,,0829.3,5.00,0.00,30.5,27.5,00.0,39.2,31.6,34.5,0000.0,0008.03,0003.65,0003.21
2022-08-15 14:35:00,,0829.2,5.00,0.00,30.4,27.7,00.0,39.2,31.6,34.0,0000.0,0007.99,0003.60,0003.19
2022-08-15 14:36:00,,0829.3,5.01,0.00,30.4,27.8,00.0,39.2,31.6,33.9,0000.0,0007.82,0003.57,0003.18
2022-08-15 14:37:00,,0829.2,4.99,0.00,30.3,28.0,00.0,39.1,31.7,34.1,0000.0,0007.79,0003.54,0003.17
2022-08-15 14:38:00,,0829.2,5.00,0.00,30.3,28.1,00.0,39.1,31.7,34.4,0000.0,0007.68,0003.52,0003.16
2022-08-15 14:39:00,,0829.2,5.01,0.00,30.3,28.2,00.0,39.1,31.7,34.5,0000.0,0007.03,0003.53,0003.16
2022-08-15 14:40:00,,0829.3,5.00,0.00,30.3,28.4,00.0,39.1,31.8,34.3,0000.0,0006.50,0003.51,0003.16
2022-08-15 14:41:00,,0829.2,5.00,0.00,30.3,28.5,00.0,39.1,31.8,34.3,0000.0,0006.33,0003.49,0003.14
2022-08-15 14:42:00,,0829.3,5.00,0.00,30.3,28.6,00.0,39.1,31.8,34.4,0000.0,0006.62,0003.49,0003.13
2022-08-15 14:43:00,,0829.3,5.00,0.00,30.3,28.7,00.0,39.1,31.9,34.9,0000.0,0006.30,0003.50,0003.13
2022-08-15 14:44:00,,0829.2,5.00,0.00,30.3,28.8,00.0,39.1,31.9,34.8,0000.0,0006.05,0003.47,0003.11
2022-08-15 14:45:00,,0829.2,5.00,0.00,30.4,28.8,00.0,39.1,32.0,34.8,0000.0,0006.16,0003.44,0003.08
2022-08-15 14:46:00,,0829.2,5.00,0.00,30.6,28.9,00.0,39.1,32.0,34.1,0000.0,0006.38,0003.44,0003.06
2022-08-15 14:47:00,,0829.2,4.99,0.00,30.7,29.0,00.0,39.1,32.1,34.5,0000.0,0006.62,0003.45,0003.07
2022-08-15 14:48:00,,0829.2,5.00,0.00,30.7,28.6,00.0,39.1,32.0,34.5,0000.0,0006.74,0003.48,0003.08
2022-08-15 14:49:00,,0829.2,5.01,0.00,30.7,28.0,00.0,39.0,31.8,34.5,0000.0,0006.97,0003.53,0003.11
2022-08-15 14:50:00,,0829.2,4.99,0.00,30.6,27.7,00.0,39.0,31.7,34.1,0000.0,0006.95,0003.52,0003.12
2022-08-15 14:51:00,,0829.2,5.01,0.00,30.5,27.7,00.0,39.0,31.6,34.1,0000.0,0006.88,0003.52,0003.12
2022-08-15 14:52:00,,0829.3,4.99,0.00,30.5,27.8,00.0,39.0,31.7,33.8,0000.0,0006.85,0003.54,0003.13
2022-08-15 14:53:00,,0829.2,5.02,0.00,30.5,27.9,00.0,39.0,31.7,34.6,0000.0,0007.19,0003.56,0003.14
2022-08-15 14:54:00,,0829.2,5.00,0.00,30.4,28.1,00.0,39.0,31.8,34.9,0000.0,0007.25,0003.57,0003.16
2022-08-15 14:55:00,,0829.4,4.99,0.00,30.5,28.3,00.0,39.0,31.8,34.9,0000.0,0007.43,0003.61,0003.17
2022-08-15 14:56:00,,0829.3,5.01,0.00,30.6,28.4,00.0,39.0,32.0,34.9,0000.0,0007.85,0003.72,0003.21
2022-08-15 14:57:00,,0829.3,5.00,0.00,30.8,28.5,00.0,39.0,32.1,33.8,0000.0,0008.41,0003.79,0003.23
2022-08-15 14:58:00,,0829.3,5.00,0.00,30.9,28.7,00.0,39.1,32.1,33.4,0000.0,0008.99,0003.85,0003.25
2022-08-15 14:59:00,,0829.2,4.99,0.00,31.0,28.8,00.0,39.1,32.1,33.7,0000.0,0009.14,0003.91,0003.27
